Date,TemperatureHighF,TemperatureAvgF,TemperatureLowF,DewpointHighF,DewpointAvgF,DewpointLowF,HumidityHigh,HumidityAvg,HumidityLow,PressureMaxIn,PressureMinIn,WindSpeedMaxMPH,WindSpeedAvgMPH,GustSpeedMaxMPH,PrecipitationSumIn
2013-1-1,15.4,11.4,9.3,3.3,-3.5,-6.8,76,51,38,30.40,30.13,13,6,25,0.00
2013-1-2,16.9,12.3,9.3,0.2,-2.6,-5.6,60,51,42,30.49,30.30,12,6,23,0.01
2013-1-3,16.2,14.4,13.1,-2.3,-3.1,-3.8,49,45,42,30.47,30.35,1,0,1,0.00
2013-1-4,33.8,19.7,11.9,9.9,4.0,-3.2,60,50,35,30.37,30.14,2,0,4,0.00
2013-1-5,28.1,27.0,26.1,-3.7,-6.9,-12.6,26,22,17,30.36,30.26,8,6,17,0.00
2013-1-6,45.7,27.5,17.5,-3.9,-10.0,-16.0,30,20,8,30.32,29.93,8,2,13,0.02
2013-1-8,32.1,29.4,27.3,14.9,10.7,-9.6,54,46,16,30.23,29.67,15,6,30,0.00
2013-1-9,31.3,30.8,30.1,10.5,9.8,9.2,42,41,40,30.25,30.20,10,8,14,0.00
2013-1-10,43.9,35.5,25.1,9.6,3.2,-0.9,48,27,15,29.58,29.37,7,3,9,0.02
2013-1-11,25.1,23.6,22.9,16.8,8.9,4.8,74,53,44,29.37,29.21,6,1,6,0.00
2013-1-12,-7.2,-8.1,-8.9,-15.3,-16.3,-17.2,67,66,66,30.28,30.25,0,0,0,0.00
2013-1-13,5.8,-2.0,-8.9,-4.0,-10.0,-17.0,76,68,62,30.47,30.20,5,1,8,0.00
2013-1-14,7.6,2.6,1.1,-10.8,-13.6,-15.3,47,46,41,30.50,30.27,10,6,18,0.00
2013-1-15,21.4,12.0,0.0,5.5,-6.4,-21.0,51,43,35,30.42,30.28,15,9,33,0.00
2013-1-16,33.2,26.8,18.4,15.0,12.0,4.3,62,53,46,30.38,30.22,15,8,24,0.00
2013-1-17,40.5,28.4,15.6,14.6,6.3,-0.5,65,41,22,30.58,30.22,11,3,18,0.00
2013-1-18,38.2,32.9,29.7,5.7,0.3,-3.6,32,25,19,30.22,30.04,18,8,32,0.00
2013-1-19,35.9,31.7,29.3,0.8,-1.0,-3.9,28,24,18,30.24,29.97,21,8,33,0.00
2013-1-20,37.8,31.7,27.3,5.7,-1.2,-5.0,38,24,18,30.24,30.03,13,7,28,0.00
2013-1-21,34.7,30.7,26.6,6.9,0.6,-6.1,34,27,18,30.20,30.04,17,10,29,0.00
2013-1-22,41.8,37.4,33.1,-2.1,-9.8,-18.5,19,13,7,30.15,29.90,21,12,40,0.00
2013-1-23,52.2,42.6,36.9,5.0,-7.2,-20.6,23,12,6,30.15,29.94,18,8,25,0.00
2013-1-24,44.9,38.9,35.8,25.1,9.8,-4.6,63,34,16,30.02,29.78,19,8,31,0.00
2013-1-25,42.3,37.7,35.2,26.1,23.6,21.3,64,57,48,30.07,29.90,18,9,32,0.00
2013-1-26,45.1,37.3,29.1,28.2,23.0,18.4,84,58,34,29.91,29.59,10,3,17,0.00
2013-1-27,41.9,34.1,25.3,27.5,21.7,13.0,89,62,41,29.74,29.53,12,4,18,0.03
2013-1-28,44.1,29.4,19.7,22.8,15.0,8.9,80,56,26,29.66,29.44,10,2,16,0.00
2013-1-29,19.5,11.9,5.4,14.3,-1.7,-7.6,80,54,35,30.15,29.56,12,6,25,0.00
2013-1-30,22.1,15.1,6.0,15.0,4.7,-6.1,77,63,51,30.11,29.91,22,13,42,0.00
2013-1-31,27.8,24.5,21.1,16.1,13.0,9.8,80,62,48,30.20,29.88,23,15,43,0.00